Simultaneous Nadir Overpasses (SNOs) Predictions

Prediction of SNOs between METOP-B and TERRA Satellite Orbit:

Table of predicted SNOs for the next 14.0 days since TLE Epoch: 9/7/2019
Index Date (METOP-B) Time (METOP-B) Lat,Lon (METOP-B) SZA (METOP-B ) Date (TERRA) Time (TERRA) Lat,Lon (TERRA) SZA (TERRA ) Distance(km) Time Diff (sec)
1 09/08/2019 23:45:37 -81.31, 50.55 101.36 09/08/2019 23:46:28 -81.31, 50.55 101.34 0.27 51
2 09/09/2019 00:36:17 81.31,-141.86 78.69 09/09/2019 00:35:54 81.32,-141.67 78.70 3.11 23
3 09/11/2019 19:19:59 -81.31, 116.91 100.28 09/11/2019 19:20:42 -81.31, 117.02 100.25 1.74 43
4 09/11/2019 20:10:38 81.32, -75.15 79.82 09/11/2019 20:10:08 81.32, -75.23 79.79 1.46 30
5 09/14/2019 14:54:19 -81.31,-176.34 99.14 09/14/2019 14:54:55 -81.31,-176.53 99.15 3.17 36
6 09/14/2019 15:44:59 81.32, -8.84 80.90 09/14/2019 15:44:21 81.32, -8.80 80.88 0.62 38
7 09/17/2019 10:28:41 -81.31,-109.99 98.04 09/17/2019 10:29:09 -81.31,-110.08 98.04 1.51 28
8 09/17/2019 11:19:21 81.32, 57.47 81.99 09/17/2019 11:18:35 81.31, 57.62 81.99 2.57 46
9 09/20/2019 06:03:03 -81.31, -43.66 96.94 09/20/2019 06:03:23 -81.31, -43.65 96.93 0.30 20




NCC Satellite Simultaneous Nadir Overpasses (SNOs) Prediction Service
